Terug naar catalogus

STARLINK-6297

ActiefCommunicatieVLEO
NORAD 57352·PAYLOAD·🇺🇸 United States

Gelanceerd Jul 16, 2023 vanaf Cape Canaveral Space Force Station

Loading…

Volgende Passages (komende 24 uur)

TLE

VersSource: CelesTrak SupGP

Epoch: Sep 15, 2026, 02:39 UTC

1 57352C 23099AA  26258.11090278 -.00023653  00000+0 -85681-3 0  2585
2 57352  42.9993 252.0174 0000960 259.3922 251.5104 15.27586879    15

Volg STARLINK-6297 in realtime met AllMySat

Download on the App Store